Find Starlink 32265

NORAD ID: 60415 Int'l Des: 2024-141 Owner: SPXS Country: US Constellation: starlink operational
LEOCIRCULAR

Live-Position

3D-Globus wird geladen...

Über Starlink 32265

Beschreibung wird geladen...

Nächste Überflüge

Passes for default location (London). Set your location on the main map for personalized predictions.

Höhenverlauf

Loading altitude history...

Zweizeiliger Elementsatz

1 60415U 24141T 26122.91356124 -.00001280 00000-0 -26770-4 0 9991
2 60415 53.1606 350.6435 0001289 48.1433 311.9679 15.34389439 97885
Epoch: 2. Mai 2026 • Age: 10 hours

Aktueller Status

Höhe 464.3 km
Geschwindigkeit 7.64 km/s
Subsatellitenpunkt -0.66°S, 173.43°W
Startdatum 10. Aug. 2024
Alter 1.7 years
Typ internet

Technische Details

Klassifizierung Payload
Masse 730.00 kg
Trockenmasse 700.00 kg
Gesamtmasse 730.00 kg
Länge 0.30 m
Durchmesser 4.10 m
Spannweite 29.00 m
Form Box + pan
Hersteller SPXS
Bus-Typ Starlink V2M
Phasenstatus In Orbit
Besitzer/Staat SPXS/US

Most Searched